Location: Malvern Link
(52.1333°N, 2.3000°W)
Time: 05:57:06
(UTC+00:00)

Envisat - Pass Details

Date: 23 January 2022
Orbit: 764 x 765 km, 98.2° (Epoch: 25 May)

Event Time Altitude Azimuth Distance (km) Brightness Sun altitude
Rises 06:06:10 0° 10° (N) 3,245 6.3 -17.5°
Reaches altitude 10° 06:08:36 10° 3° (N) 2,314 5.4 -17.1°
Maximum altitude 06:13:19 40° 295° (WNW) 1,119 3.4 -16.4°
Drops below altitude 10° 06:18:02 10° 227° (SW) 2,301 5.1 -15.7°
Sets 06:20:26 0° 220° (SW) 3,223 6.0 -15.3°
